Tracking 22879 objects as of 21-Apr-2021
HD Live streaming from Space Station
objects crossing your sky now

STARLINK-2427

Track STARLINK-2427 now!
10-day predictions
STARLINK-2427 is classified as:


NORAD ID: 47837
Int'l Code: 2021-018BC
Perigee: 356.0 km
Apogee: 357.5 km
Inclination: 53.0 °
Period: 91.5 minutes
Semi major axis: 6727 km
RCS: Unknown
Launch date: March 11, 2021
Source: United States (US)
Launch site: AIR FORCE EASTERN TEST RANGE (AFETR)
aabbcc
Your satellite tracking list
Your tracking list is empty




NASA's NSSDC Master Catalog

Two Line Element Set (TLE):
1 47837U 21018BC  21110.83335648 -.00086833  00000-0 -61897-3 0  9990
2 47837  53.0493 346.8329 0001101  90.2139 180.9794 15.73260064  7286
Source of the keplerian elements: AFSPC